This is the latest recevied weather packets stored in our database for station/object KB1YYC. If no packets are shown the sender has not sent any weather packets the latest 10 day(s).
| Time | Temp. | Humidity | Pressure | Rain* | Wind** | Luminosity | Snow |
|---|---|---|---|---|---|---|---|
| 1778079675 | 18.89° C | 73% | 1008.6 hPa | 0 mm | - | 221 W/m² | - |
| 1778079372 | 18.33° C | 75% | 1008.7 hPa | 0 mm | - | 207 W/m² | - |
| 1778079069 | 18.89° C | 74% | 1008.5 hPa | 0 mm | - | 161 W/m² | - |
| 1778078766 | 19.44° C | 71% | 1008.5 hPa | 0 mm | - | 154 W/m² | - |
| 1778078463 | 19.44° C | 72% | 1008.5 hPa | 0 mm | - | 163 W/m² | - |
| 1778078161 | 19.44° C | 72% | 1008.3 hPa | 0 mm | - | 178 W/m² | - |
| 1778077858 | 18.89° C | 72% | 1008.3 hPa | 0 mm | - | 156 W/m² | - |
| 1778077556 | 18.89° C | 72% | 1008.3 hPa | 0 mm | - | 158 W/m² | - |
| 1778077254 | 18.89° C | 73% | 1008.2 hPa | 0 mm | - | 168 W/m² | - |
| 1778076952 | 18.89° C | 72% | 1008.5 hPa | 0 mm | - | 176 W/m² | - |
| 1778076650 | 18.89° C | 73% | 1008.4 hPa | 0 mm | - | 202 W/m² | - |
| 1778076347 | 18.89° C | 73% | 1008.7 hPa | 0 mm | - | 200 W/m² | - |
| 1778076044 | 18.33° C | 75% | 1008.6 hPa | 0 mm | - | 183 W/m² | - |
| 1778075741 | 18.33° C | 74% | 1008.8 hPa | 0 mm | - | 139 W/m² | - |
| 1778075437 | 18.33° C | 74% | 1009 hPa | 0 mm | - | 134 W/m² | - |
| 1778075134 | 18.33° C | 74% | 1008.9 hPa | 0 mm | - | 129 W/m² | - |
| 1778074830 | 18.33° C | 74% | 1008.8 hPa | 0 mm | - | 143 W/m² | - |
| 1778074527 | 18.33° C | 74% | 1009 hPa | 0 mm | - | 147 W/m² | - |
| 1778074224 | 18.33° C | 75% | 1008.8 hPa | 0 mm | - | 138 W/m² | - |
| 1778073921 | 18.33° C | 74% | 1008.9 hPa | 0 mm | - | 151 W/m² | - |
| 1778073619 | 17.78° C | 75% | 1008.7 hPa | 0 mm | - | 166 W/m² | - |
| 1778073315 | 17.78° C | 75% | 1008.8 hPa | 0 mm | - | 103 W/m² | - |
| 1778073012 | 17.78° C | 76% | 1008.8 hPa | 0 mm | - | 114 W/m² | - |
| 1778072709 | 17.78° C | 76% | 1008.7 hPa | 0 mm | - | 100 W/m² | - |
| 1778072406 | 17.22° C | 77% | 1008.8 hPa | 0 mm | - | 134 W/m² | - |
* Rain latest hour (hover to see other rain measurements)
** Current wind speed in m/s (hover to see current wind gust speed)